#timestamp,LO_Frequency,Hit,StdDev 
1564707615.7,286046997.4,N
1564707635.5,286046997.9,N
1564707655.4,286046997.4,N
1564707675.2,286046997.8,N
1564707695.0,286046997.7,N
1564707695.9,286046997.7,N
1564707715.8,286046997.9,N
1564707735.6,286046994.9,Y
1564707755.5,286046999.2,P
1564707775.3,286046999.0,N
1564707795.1,286046999.1,N
1564707815.9,286046999.3,N
1564707835.7,286046999.3,N
1564707855.5,286046998.3,Y
1564707875.4,286046998.5,P
1564707895.2,286046998.6,P
1564707915.1,286046999.1,P
1564707916.0,286046999.1,Y
1564707935.8,286047000.3,P
1564707955.6,286047000.3,N
1564707975.5,286047001.0,N
1564707995.3,286047000.1,N
1564708015.2,286047002.4,Y
1564708035.0,286047002.8,P
1564708035.9,286047002.8,N
1564708055.7,286047001.5,N
1564708075.6,286047000.0,N
1564708095.4,286047002.8,N
1564708115.3,286047000.9,N
1564708135.1,286046999.7,N
1564708136.0,286046999.7,N
1564708155.8,286046999.9,N
1564708175.7,286047000.6,N
1564708195.5,286047002.6,N
1564708215.4,286047002.3,N
1564708235.2,286047002.2,N
1564708255.0,286047000.9,N
1564708255.9,286047000.9,N
1564708275.8,286047000.5,N
1564708295.6,286047002.1,N
1564708315.4,286047002.4,N
1564708335.3,286046999.7,N
1564708355.1,286047000.4,N
1564708375.9,286047002.6,N
1564708395.7,286047000.3,N
1564708415.5,286047000.7,N
1564708435.4,286046998.9,N
1564708455.2,286046999.6,N
1564708475.0,286046999.0,N
1564708475.9,286046999.0,N
1564708495.8,286046998.8,N
1564708515.6,286046999.4,N
1564708535.5,286047000.8,N
1564708555.3,286047000.4,N
1564708575.1,286047000.4,N
1564708595.9,286046999.9,N
1564708615.7,286047001.9,N
1564708635.6,286047001.8,N
1564708655.4,286047000.4,N
1564708675.2,286047004.4,Y
1564708695.1,286047002.1,P
1564708696.0,286047002.1,N
1564708715.8,286047002.7,P
1564708735.6,286046999.9,N
1564708755.5,286047000.3,N
1564708775.3,286047000.1,N
1564708795.2,286047002.0,N
1564708815.9,286047002.5,N
1564708835.7,286047001.4,N
1564708855.6,286047001.9,N
1564708875.4,286047004.3,Y
1564708895.3,286047002.7,P
1564708915.1,286047002.3,P
1564708916.0,286047002.3,P
1564708935.8,286047002.5,Y
1564708955.7,286047000.7,P
1564708975.5,286046998.4,N
1564708995.3,286047000.9,N
1564709015.2,286047001.1,N
1564709035.0,286046998.8,N
1564709035.9,286046998.8,N
1564709055.8,286046998.8,N
1564709075.6,286046998.4,N
1564709095.4,286046998.3,N
1564709115.3,286046998.2,N
1564709135.1,286046998.8,N
1564709155.9,286046998.8,N
1564709175.7,286046998.6,N
1564709195.5,286046999.4,N
1564709215.4,286046997.1,N
1564709235.2,286046996.5,N
1564709255.1,286046996.9,N
1564709256.0,286046996.9,N
1564709275.8,286046998.6,N
1564709295.6,286046998.6,N
1564709315.5,286047001.2,N
1564709335.3,286047000.8,N
1564709355.1,286047001.2,N
1564709375.9,286047000.2,N
1564709395.7,286046998.3,N
1564709415.6,286046998.9,N
1564709435.4,286047000.9,N
1564709455.2,286046999.7,N
1564709475.1,286047002.7,N
1564709476.0,286047002.7,N
1564709495.8,286047000.3,N
1564709515.7,286046999.8,N
1564709535.5,286047000.4,N
1564709555.3,286047002.7,N
1564709575.2,286047000.2,N
1564709595.0,286047000.9,N
1564709595.9,286047000.9,N
1564709615.8,286047000.2,N
1564709635.6,286046998.6,N
1564709655.4,286047001.1,N
1564709675.3,286047001.2,N
1564709695.1,286046998.1,N
1564709715.8,286046998.2,N
1564709735.7,286047000.5,N
1564709755.5,286047000.5,N
1564709775.4,286047000.2,N
1564709795.2,286046999.9,N
1564709815.0,286047000.2,N
1564709815.9,286047000.2,N
1564709835.8,286047000.3,N
1564709855.6,286047000.9,N
1564709875.5,286047000.5,N
1564709895.3,286047002.4,N
1564709915.1,286047001.1,N
1564709935.9,286047000.3,N
1564709955.7,286046999.3,N
1564709975.5,286046999.5,N
1564709995.4,286046998.3,N
1564710015.2,286047000.3,N
1564710035.1,286047001.8,N
1564710036.0,286047001.8,N
1564710055.8,286047002.0,N
1564710075.6,286047001.4,N
1564710095.5,286047001.7,N
1564710115.3,286047002.5,N
1564710135.2,286047002.0,N
1564710155.9,286047003.9,Y
1564710175.7,286046999.9,P
1564710195.6,286047000.2,N
1564710215.4,286047002.6,P
1564710235.3,286047002.3,N
1564710255.1,286047002.5,N
1564710256.0,286047002.5,N
1564710275.8,286047002.0,N
1564710295.7,286047002.2,N
1564710315.5,286047002.8,N
1564710335.3,286047002.3,N
1564710355.2,286046999.9,N
1564710375.0,286046999.8,N
1564710375.9,286046999.8,N
1564710395.8,286047000.0,N
1564710415.6,286047000.3,N
1564710435.4,286047000.6,N
1564710455.3,286046999.9,N
1564710475.1,286047000.9,N
1564710495.9,286047000.8,N
1564710515.7,286047000.7,N
1564710535.5,286047001.1,N
1564710555.4,286046998.2,N
1564710575.2,286046999.2,N
1564710595.0,286046999.5,N
1564710596.0,286046999.5,N
1564710615.8,286046998.5,N
1564710635.6,286046998.5,N
1564710655.5,286046998.8,N
1564710675.3,286046996.5,N
1564710695.1,286046996.8,N
1564710715.9,286046997.5,N
1564710735.7,286046997.3,N
1564710755.6,286046997.1,N
1564710775.4,286046997.8,N
1564710795.2,286046995.8,N
1564710815.1,286046995.0,N
1564710816.0,286046995.0,N
1564710835.8,286046997.5,N
1564710855.7,286046997.5,N
1564710875.7,286046995.1,N
1564710895.5,286046995.0,N
1564710915.4,286046995.4,N
1564710935.2,286046997.5,N
1564710955.0,286046997.7,N
1564710955.9,286046997.7,N
1564710975.8,286046996.8,N
1564710995.6,286046997.3,N
1564711015.5,286046996.6,N
1564711035.3,286046996.9,N
1564711055.1,286046996.5,N
1564711075.9,286046996.7,N
1564711095.7,286046999.5,N
1564711115.5,286046996.8,N
1564711135.4,286046995.2,Y
1564711155.2,286046998.8,P
1564711175.1,286047000.5,N
1564711176.0,286047000.5,N
1564711195.8,286046998.2,N
